Wind_Speed
41 42 43 43 43 44 45 45 46 46 46 47 47 47 48 47 47 47 47 48 48 49 49 50 50 49 49 50 50 50 50 51 51 50 50 51 51 51 51 50 49 48 48
43 44 44 44 45 45 45 46 47 47 47 47 48 48 48 48 47 46 47 48 49 49 50 50 51 51 50 51 51 52 52 52 53 52 51 51 51 50 50 50 49 49 48
44 45 46 46 46 46 46 47 48 48 49 49 49 50 50 49 49 49 49 49 49 50 50 51 51 52 52 52 52 53 53 53 53 53 52 51 50 50 50 50 50 50 49
45 46 46 47 48 48 47 48 48 49 49 50 50 50 51 51 51 52 51 51 51 51 51 52 52 52 52 53 53 53 53 53 52 52 52 51 50 50 51 51 51 51 51
46 47 47 48 48 49 49 49 49 50 50 51 51 51 52 52 53 53 53 53 53 53 53 53 53 53 53 53 52 52 51 52 52 52 52 51 51 51 51 52 52 52 52
47 47 48 48 49 50 50 51 51 51 51 52 53 53 54 54 53 53 53 53 53 53 53 53 52 52 52 52 51 51 51 50 51 51 50 51 51 51 52 52 52 52 52
47 48 48 49 50 51 52 53 53 53 53 53 53 53 54 53 53 53 53 52 52 52 53 53 53 53 52 52 51 51 50 50 51 51 51 51 51 52 52 52 52 52 51
47 48 49 49 50 50 51 52 53 54 54 54 54 54 53 53 53 53 53 53 52 52 53 53 53 53 53 53 52 51 50 50 51 51 52 52 52 52 51 51 51 51 51
46 47 47 48 49 49 50 50 52 52 53 53 54 53 53 53 53 53 53 53 53 52 52 53 52 52 53 53 53 52 51 51 51 51 51 51 51 51 51 51 51 51 51
46 47 47 47 48 48 49 49 50 51 52 52 53 53 54 53 53 53 52 52 52 52 52 52 52 52 52 52 52 52 52 51 51 51 51 50 50 51 51 51 51 51 50
46 46 47 47 48 48 48 48 49 49 50 51 52 52 53 52 52 52 52 52 52 51 51 51 51 51 51 51 51 51 51 52 52 52 51 50 50 50 50 51 51 51 51
44 45 45 46 47 47 47 48 48 48 49 49 49 49 50 50 51 50 50 51 51 51 50 50 50 51 51 50 50 50 51 51 51 50 50 49 49 49 49 50 50 50 50
42 42 42 43 44 45 46 46 47 47 47 47 47 47 47 48 47 47 47 48 48 48 48 48 49 49 49 49 50 49 49 49 49 48 48 48 48 48 48 48 48 48 48
41 41 41 42 43 44 44 45 45 45 45 45 44 44 44 45 45 45 46 46 46 47 47 48 48 48 48 48 48 48 47 47 47 48 48 48 48 47 47 47 48 48 48
41 41 42 42 42 43 43 44 44 44 44 44 43 43 43 42 43 44 44 45 46 46 47 47 47 47 47 47 47 46 46 46 46 46 46 46 46 46 46 46 47 47 47
40 40 40 40 40 41 41 42 42 43 43 43 43 42 42 41 42 43 43 44 45 46 46 46 46 46 46 46 46 46 45 45 45 45 46 46 45 45 45 45 45 45 46
40 40 39 39 39 39 39 40 40 41 41 42 42 42 41 41 41 42 43 43 43 44 44 44 44 45 45 45 45 45 45 44 44 44 44 44 44 44 44 44 44 44 44
39 39 39 38 38 38 38 38 39 39 39 39 40 40 40 40 40 40 40 41 41 42 42 42 43 43 43 44 44 44 44 44 43 42 42 42 42 42 42 42 43 43 43
39 38 38 38 37 37 37 37 37 37 37 36 37 37 38 38 38 39 39 39 39 39 40 40 40 41 41 42 42 43 43 43 42 42 42 42 42 41 41 42 43 43 43
38 38 37 36 36 36 36 36 35 35 35 35 35 36 37 37 37 37 37 37 37 37 38 38 39 39 40 40 40 41 42 42 42 41 41 42 42 42 42 42 42 42 42
37 36 36 36 35 35 35 35 35 35 35 35 35 35 36 36 36 36 36 37 37 37 38 38 38 39 39 39 40 40 41 41 41 41 40 41 41 42 42 42 41 41 42
36 35 35 35 35 36 36 36 36 36 36 36 36 36 36 36 36 36 36 37 38 38 38 38 39 39 39 39 39 39 39 40 40 40 40 40 40 40 40 41 41 41 42
35 35 35 35 36 36 37 37 37 37 37 37 37 37 37 37 37 37 37 38 39 39 39 39 39 38 38 39 39 39 38 38 39 39 39 39 39 39 40 40 40 41 41
35 35 35 36 36 37 37 38 38 38 38 38 38 38 38 38 38 38 38 38 38 38 39 39 38 38 38 38 38 38 38 39 39 39 39 39 39 39 39 39 40 40 40
35 36 36 36 37 37 37 37 38 38 38 38 38 38 38 38 38 38 38 38 38 38 38 37 37 38 38 38 38 38 38 38 38 38 39 39 39 39 39 39 39 39 39
35 35 36 37 37 37 37 37 37 37 37 37 37 37 37 37 37 37 37 37 37 37 37 36 37 37 37 36 36 36 37 37 37 38 38 38 38 38 38 38 38 38 38
Wind_Direction
262 261 261 260 260 258 257 256 257 257 258 258 259 260 260 262 262 263 263 263 264 264 265 265 266 267 268 268 268 268 269 270 271 271 271 272 272 272 272 272 272 271 272
264 263 263 262 261 260 259 259 258 259 260 259 259 260 261 262 262 263 264 264 265 266 266 267 267 267 268 268 269 269 269 270 270 271 272 272 272 272 271 270 270 271 271
265 265 263 263 262 261 261 261 261 261 261 261 260 261 262 262 263 263 264 264 265 266 267 267 267 268 269 269 270 270 270 270 270 271 271 271 270 271 270 269 269 270 271
265 265 264 263 262 262 262 262 262 262 262 262 262 263 263 263 264 264 263 264 265 266 266 266 267 268 269 270 270 270 270 270 270 270 270 270 270 270 269 269 270 269 270
266 266 265 264 263 262 262 262 262 263 263 263 263 264 264 264 264 265 265 265 265 266 266 267 267 268 269 269 269 270 270 270 270 270 270 270 269 269 269 269 270 269 269
267 266 265 264 263 263 262 263 263 263 264 264 265 265 265 265 265 266 266 266 266 266 267 267 267 268 268 268 268 269 269 269 269 270 270 270 269 270 269 269 269 269 268
267 266 265 265 265 264 264 263 263 263 264 264 265 264 265 265 266 266 266 266 267 266 266 267 267 267 267 268 268 268 269 268 269 269 270 270 270 269 269 269 269 269 268
268 267 266 266 266 266 265 264 263 263 263 263 263 264 264 265 265 266 267 267 266 266 266 266 266 267 267 268 268 269 268 268 268 269 269 269 268 268 268 269 269 269 270
269 269 268 268 267 266 265 264 263 263 263 262 263 263 264 264 266 266 266 266 266 266 266 266 267 268 268 268 269 269 269 268 268 269 269 269 268 267 267 268 269 269 270
270 270 270 269 268 267 266 265 265 264 264 264 264 264 264 265 265 266 266 266 266 266 266 267 267 267 268 269 269 269 269 269 269 269 270 269 268 267 267 268 269 269 269
272 271 270 269 269 268 267 266 266 266 265 265 265 265 264 264 264 264 264 265 266 266 266 267 267 268 268 268 269 270 269 270 270 269 269 269 269 269 268 268 269 269 269
273 272 271 269 268 268 267 266 266 267 267 267 266 266 265 265 264 264 264 265 265 266 266 266 267 268 268 268 269 270 270 269 269 269 268 268 268 269 269 269 269 269 269
274 272 270 269 268 268 268 267 267 268 268 268 268 267 266 266 265 264 264 264 265 265 265 266 267 267 268 268 269 269 269 269 268 268 268 268 268 269 269 269 269 268 269
273 272 271 270 269 269 268 268 268 268 268 268 268 268 267 266 265 264 264 265 265 266 266 266 267 267 267 268 268 269 269 268 267 266 266 267 267 268 269 269 268 268 269
274 273 272 271 271 270 269 269 269 269 269 268 268 267 266 266 265 265 264 265 265 265 266 267 267 267 267 267 267 268 268 268 267 267 267 267 267 267 269 270 270 269 270
275 275 274 273 272 271 270 270 269 269 268 268 268 267 266 266 265 265 265 265 265 265 266 266 267 267 267 267 267 268 268 268 268 268 268 268 268 268 269 270 271 270 270
277 276 275 274 273 272 271 270 270 269 269 269 268 268 267 267 267 267 266 266 266 266 266 266 267 267 267 267 267 267 267 267 268 268 269 269 269 269 270 270 270 270 270
276 275 275 274 273 273 273 272 271 271 270 269 269 268 267 267 267 267 267 266 267 267 267 267 267 267 267 267 267 266 266 266 267 268 268 268 269 269 270 270 270 270 270
275 275 274 274 273 273 273 273 273 272 271 269 268 268 267 267 268 268 267 267 267 268 268 268 268 268 268 268 267 266 265 265 266 267 267 267 268 269 270 270 270 270 270
274 274 274 273 273 272 273 273 273 272 271 269 268 268 267 267 268 269 268 268 268 268 269 269 269 269 269 269 269 268 266 266 266 267 268 268 268 269 270 270 270 270 270
274 273 272 272 272 272 273 273 273 272 272 271 269 269 268 269 270 270 269 269 269 270 270 271 271 271 270 270 270 269 268 267 266 267 268 268 268 269 269 270 270 270 270
272 272 271 271 271 271 272 272 273 272 271 271 270 270 270 271 270 270 270 270 271 272 272 272 272 271 271 270 270 270 269 268 268 267 268 268 268 269 269 269 270 270 271
271 271 271 271 271 271 271 272 272 271 271 271 271 271 271 271 271 271 271 272 272 273 273 273 272 271 270 270 270 270 269 268 268 268 268 267 268 268 268 269 269 270 270
270 271 271 272 272 273 273 273 273 272 271 271 272 272 272 272 272 272 272 272 272 273 273 272 271 271 271 271 270 269 268 268 268 267 267 267 267 268 268 269 270 270 270
271 272 272 272 273 273 274 273 273 272 271 272 272 272 272 271 271 271 271 272 272 272 272 272 271 271 272 271 270 269 268 268 267 267 267 267 268 268 269 269 269 270 270
273 273 273 273 273 273 274 273 273 272 271 272 272 272 271 270 270 270 270 271 271 271 271 272 272 272 272 271 269 268 267 266 266 266 266 267 267 267 267 268 269 270 270
Height
5610 5611 5612 5613 5614 5616 5617 5618 5619 5620 5621 5623 5624 5625 5626 5626 5627 5628 5629 5630 5631 5631 5631 5632 5632 5632 5631 5631 5631 5631 5630 5629 5629 5631 5631 5630 5629 5628 5626 5625 5624 5624 5623
5599 5600 5600 5601 5602 5603 5605 5606 5607 5608 5609 5610 5611 5612 5612 5613 5614 5615 5615 5616 5617 5618 5618 5618 5618 5618 5618 5617 5617 5617 5616 5615 5615 5615 5616 5615 5614 5613 5613 5612 5611 5610 5610
5586 5587 5588 5589 5590 5591 5592 5593 5594 5595 5596 5596 5597 5598 5599 5599 5600 5601 5602 5603 5603 5604 5604 5604 5604 5604 5604 5603 5602 5602 5601 5601 5600 5600 5600 5600 5600 5599 5599 5598 5598 5597 5596
5574 5574 5575 5576 5577 5578 5579 5580 5581 5581 5582 5583 5584 5584 5585 5586 5586 5587 5587 5588 5589 5590 5590 5590 5589 5589 5589 5589 5588 5587 5587 5586 5585 5585 5585 5585 5585 5585 5584 5584 5584 5583 5583
5560 5561 5561 5562 5563 5564 5565 5566 5567 5568 5568 5569 5570 5570 5571 5571 5572 5572 5573 5573 5574 5574 5575 5575 5575 5574 5574 5574 5573 5573 5572 5572 5571 5571 5570 5570 5570 5570 5570 5569 5569 5569 5569
5546 5547 5547 5548 5548 5549 5550 5551 5552 5553 5554 5554 5555 5555 5556 5556 5557 5557 5557 5558 5559 5559 5559 5559 5559 5559 5559 5559 5558 5558 5558 5557 5557 5556 5556 5556 5556 5555 5555 5554 5554 5554 5555
5532 5532 5532 5533 5533 5534 5535 5536 5537 5537 5538 5539 5539 5540 5540 5541 5541 5542 5542 5542 5543 5544 5544 5544 5544 5544 5544 5544 5543 5543 5543 5543 5543 5542 5542 5542 5541 5541 5540 5540 5539 5539 5539
5518 5517 5517 5518 5518 5518 5519 5520 5521 5521 5522 5523 5523 5524 5525 5525 5525 5526 5526 5527 5527 5528 5528 5528 5529 5529 5529 5528 5528 5529 5528 5528 5528 5528 5528 5527 5526 5525 5525 5525 5525 5525 5525
5503 5503 5503 5503 5503 5503 5504 5504 5505 5505 5506 5507 5507 5508 5509 5510 5510 5510 5510 5511 5512 5512 5513 5513 5513 5513 5513 5513 5513 5514 5513 5513 5512 5512 5512 5512 5511 5510 5510 5510 5510 5510 5510
5489 5489 5488 5488 5488 5488 5488 5489 5489 5490 5490 5490 5491 5492 5493 5493 5494 5494 5494 5495 5496 5497 5497 5497 5498 5498 5497 5497 5497 5498 5498 5498 5497 5497 5497 5496 5496 5495 5495 5495 5495 5495 5495
5475 5474 5473 5473 5473 5473 5473 5473 5474 5474 5474 5475 5475 5476 5476 5477 5478 5478 5478 5478 5479 5480 5481 5482 5482 5482 5482 5482 5482 5482 5483 5482 5482 5482 5481 5481 5481 5480 5479 5479 5479 5479 5479
5461 5459 5459 5458 5458 5458 5458 5458 5458 5458 5459 5458 5459 5459 5460 5460 5461 5462 5462 5462 5463 5464 5465 5466 5466 5466 5466 5467 5467 5467 5467 5467 5467 5466 5466 5466 5466 5465 5465 5464 5464 5463 5463
5447 5445 5444 5444 5443 5443 5443 5443 5443 5443 5443 5443 5444 5444 5445 5445 5445 5446 5446 5447 5447 5448 5449 5450 5450 5451 5451 5451 5452 5452 5452 5451 5451 5451 5451 5451 5451 5450 5449 5449 5449 5448 5448
5433 5432 5431 5430 5430 5429 5428 5428 5428 5428 5429 5429 5429 5430 5430 5430 5431 5431 5432 5432 5433 5433 5434 5434 5435 5435 5436 5436 5436 5436 5436 5437 5437 5437 5437 5436 5436 5436 5435 5435 5435 5435 5435
5420 5419 5418 5417 5416 5415 5415 5414 5414 5414 5414 5415 5415 5416 5416 5417 5417 5417 5417 5418 5418 5419 5419 5420 5420 5420 5421 5421 5421 5421 5421 5422 5422 5422 5422 5422 5422 5421 5421 5421 5421 5421 5421
5407 5406 5405 5404 5403 5402 5402 5402 5400 5401 5400 5400 5401 5401 5402 5402 5403 5403 5403 5403 5404 5404 5405 5405 5405 5405 5406 5406 5406 5407 5407 5407 5407 5408 5407 5408 5407 5407 5407 5407 5406 5406 5407
5395 5393 5392 5391 5390 5390 5389 5388 5388 5388 5387 5387 5387 5387 5388 5388 5389 5389 5389 5389 5389 5390 5390 5391 5391 5391 5391 5391 5392 5392 5393 5393 5393 5393 5393 5393 5393 5393 5393 5393 5393 5393 5393
5382 5381 5380 5379 5378 5377 5376 5376 5375 5375 5375 5374 5374 5374 5374 5375 5375 5375 5375 5376 5376 5376 5376 5377 5377 5377 5377 5377 5377 5378 5378 5379 5379 5380 5380 5380 5380 5380 5380 5380 5380 5380 5380
5370 5369 5368 5367 5366 5365 5364 5364 5363 5362 5362 5362 5361 5361 5361 5362 5362 5362 5362 5363 5363 5363 5363 5363 5363 5363 5363 5363 5363 5364 5364 5365 5366 5366 5366 5366 5366 5366 5366 5366 5367 5367 5367
5357 5356 5355 5355 5354 5354 5353 5352 5351 5351 5350 5350 5350 5350 5349 5349 5350 5350 5350 5350 5350 5350 5350 5350 5350 5350 5350 5350 5350 5350 5350 5351 5352 5352 5353 5353 5353 5353 5354 5353 5353 5354 5354
5345 5344 5344 5343 5343 5342 5341 5341 5340 5340 5339 5339 5338 5338 5337 5338 5338 5337 5337 5338 5338 5338 5337 5337 5337 5337 5337 5337 5337 5337 5337 5338 5339 5339 5339 5340 5340 5341 5341 5341 5341 5341 5341
5334 5333 5332 5332 5331 5331 5330 5329 5328 5328 5327 5327 5326 5326 5325 5325 5325 5325 5325 5325 5324 5324 5324 5324 5324 5324 5324 5324 5324 5324 5324 5325 5325 5326 5326 5327 5327 5328 5328 5328 5328 5328 5328
5322 5321 5320 5320 5319 5319 5318 5317 5316 5316 5315 5315 5314 5314 5313 5313 5313 5313 5313 5312 5311 5311 5311 5311 5311 5311 5310 5311 5311 5311 5311 5312 5312 5313 5314 5314 5314 5315 5315 5315 5315 5315 5315
5310 5309 5309 5308 5307 5306 5305 5305 5304 5303 5303 5302 5302 5301 5301 5301 5300 5300 5300 5299 5299 5298 5298 5298 5298 5298 5297 5297 5298 5298 5298 5299 5299 5300 5301 5301 5302 5302 5303 5303 5303 5302 5302
5298 5297 5296 5296 5295 5294 5293 5292 5291 5290 5290 5289 5289 5288 5288 5287 5287 5287 5287 5286 5286 5285 5285 5285 5285 5285 5285 5285 5285 5285 5286 5286 5287 5287 5288 5289 5290 5290 5290 5290 5290 5290 5290
5286 5285 5284 5283 5282 5281 5280 5279 5278 5278 5277 5276 5276 5275 5275 5274 5274 5274 5274 5273 5273 5273 5272 5272 5272 5272 5272 5272 5272 5272 5273 5273 5274 5275 5276 5277 5277 5278 5278 5278 5278 5278 5278